| time (UTC) | temp F | wind direction | speed knots | gust knots | rain 1hr in | rain 24hr in | rain mn in | humidity % | barometer mb |
| 20260902230054 | 74 | 240 | 5.2 | 20.9 | 0.00 | 0.00 | 0.00 | 17 | 1020.0 |
| 20260902225552 | 73 | 277 | 9.6 | 20.9 | 0.00 | 0.00 | 0.00 | 18 | 1020.0 |
| 20260902225048 | 73 | 181 | 4.3 | 13.0 | 0.00 | 0.00 | 0.00 | 18 | 1020.0 |
| 20260902224605 | 73 | 229 | 6.1 | 15.6 | 0.00 | 0.00 | 0.00 | 18 | 1020.1 |
| 20260902224046 | 72 | 198 | 8.7 | 19.1 | 0.00 | 0.00 | 0.00 | 20 | 1019.9 |
| 20260902223547 | 72 | 249 | 7.0 | 19.1 | 0.00 | 0.00 | 0.00 | 19 | 1020.1 |
| 20260902223047 | 72 | 196 | 8.7 | 13.9 | 0.00 | 0.00 | 0.00 | 20 | 1020.2 |
| 20260902222543 | 71 | 222 | 7.8 | 15.6 | 0.00 | 0.00 | 0.00 | 21 | 1020.2 |
| 20260902222043 | 70 | 182 | 10.4 | 17.4 | 0.00 | 0.00 | 0.00 | 21 | 1020.3 |
| 20260902221544 | 71 | 202 | 8.7 | 17.4 | 0.00 | 0.00 | 0.00 | 21 | 1020.3 |
| 20260902221043 | 71 | 233 | 7.8 | 20.0 | 0.00 | 0.00 | 0.00 | 22 | 1020.4 |
| 20260902220544 | 69 | 227 | 9.6 | 20.0 | 0.00 | 0.00 | 0.00 | 23 | 1020.5 |
| 20260902220043 | 69 | 203 | 10.4 | 17.4 | 0.00 | 0.00 | 0.00 | 22 | 1020.5 |
| 20260902215541 | 70 | 192 | 9.6 | 20.0 | 0.00 | 0.00 | 0.00 | 23 | 1020.6 |
| 20260902215045 | 70 | 186 | 7.0 | 19.1 | 0.00 | 0.00 | 0.00 | 23 | 1020.6 |
| 20260902214608 | 70 | 233 | 9.6 | 19.1 | 0.00 | 0.00 | 0.00 | 23 | 1020.6 |
| 20260902214042 | 70 | 207 | 9.6 | 17.4 | 0.00 | 0.00 | 0.00 | 23 | 1020.6 |
| 20260902213541 | 70 | 231 | 7.0 | 20.9 | 0.00 | 0.00 | 0.00 | 22 | 1020.7 |
| 20260902213042 | 70 | 219 | 7.0 | 18.2 | 0.00 | 0.00 | 0.00 | 22 | 1020.5 |
| 20260902212540 | 70 | 189 | 7.8 | 20.0 | 0.00 | 0.00 | 0.00 | 23 | 1020.7 |
| 20260902212041 | 71 | 216 | 10.4 | 20.0 | 0.00 | 0.00 | 0.00 | 23 | 1020.6 |
| 20260902211539 | 70 | 192 | 8.7 | 19.1 | 0.00 | 0.00 | 0.00 | 23 | 1020.6 |
| 20260902211038 | 69 | 202 | 9.6 | 15.6 | 0.00 | 0.00 | 0.00 | 24 | 1020.6 |
| 20260902210539 | 69 | 248 | 9.6 | 15.6 | 0.00 | 0.00 | 0.00 | 24 | 1020.7 |
| 20260902210041 | 69 | 245 | 8.7 | 14.8 | 0.00 | 0.00 | 0.00 | 25 | 1020.7 |
| 20260902205537 | 69 | 219 | 8.7 | 16.5 | 0.00 | 0.00 | 0.00 | 25 | 1020.7 |
| 20260902205036 | 69 | 238 | 4.3 | 10.4 | 0.00 | 0.00 | 0.00 | 26 | 1020.7 |
| 20260902204535 | 68 | 171 | 0.9 | 10.4 | 0.00 | 0.00 | 0.00 | 27 | 1020.8 |
| 20260902204034 | 68 | 189 | 4.3 | 10.4 | 0.00 | 0.00 | 0.00 | 27 | 1020.8 |
| 20260902203534 | 67 | 190 | 3.5 | 10.4 | 0.00 | 0.00 | 0.00 | 27 | 1020.8 |
| 20260902203035 | 68 | 183 | 5.2 | 10.4 | 0.00 | 0.00 | 0.00 | 27 | 1020.8 |
| 20260902202535 | 68 | 209 | 4.3 | 9.6 | 0.00 | 0.00 | 0.00 | 28 | 1020.9 |
| 20260902202033 | 68 | 197 | 3.5 | 9.6 | 0.00 | 0.00 | 0.00 | 28 | 1021.0 |
| 20260902201536 | 67 | 211 | 1.7 | 8.7 | 0.00 | 0.00 | 0.00 | 28 | 1021.0 |
| 20260902201031 | 66 | 188 | 0.9 | 4.3 | 0.00 | 0.00 | 0.00 | 27 | 1021.1 |
| 20260902200530 | 66 | 201 | 0.0 | 7.8 | 0.00 | 0.00 | 0.00 | 28 | 1021.1 |
| 20260902200030 | 66 | 211 | 0.9 | 7.8 | 0.00 | 0.00 | 0.00 | 28 | 1021.2 |
| 20260902195529 | 66 | 210 | 3.5 | 7.8 | 0.00 | 0.00 | 0.00 | 28 | 1021.2 |
| 20260902195030 | 66 | 246 | 0.9 | 7.0 | 0.00 | 0.00 | 0.00 | 27 | 1021.2 |
| 20260902194537 | 66 | 269 | 0.0 | 6.1 | 0.00 | 0.00 | 0.00 | 27 | 1021.3 |
| 20260902194027 | 65 | 274 | 1.7 | 8.7 | 0.00 | 0.00 | 0.00 | 28 | 1021.4 |
| 20260902193527 | 64 | 348 | 0.0 | 3.5 | 0.00 | 0.00 | 0.00 | 28 | 1021.5 |
| 20260902193025 | 64 | 227 | 0.0 | 2.6 | 0.00 | 0.00 | 0.00 | 29 | 1021.5 |
| 20260902192525 | 64 | 313 | 0.0 | 7.0 | 0.00 | 0.00 | 0.00 | 29 | 1021.4 |
| 20260902192027 | 64 | 196 | 2.6 | 7.0 | 0.00 | 0.00 | 0.00 | 29 | 1021.6 |
| 20260902191524 | 63 | 207 | 0.0 | 6.1 | 0.00 | 0.00 | 0.00 | 29 | 1021.5 |
| 20260902191024 | 64 | 210 | 0.9 | 6.1 | 0.00 | 0.00 | 0.00 | 29 | 1021.6 |
| 20260902190524 | 63 | 264 | 0.0 | 6.1 | 0.00 | 0.00 | 0.00 | 30 | 1021.6 |
| 20260902190024 | 63 | 286 | 0.0 | 7.8 | 0.00 | 0.00 | 0.00 | 30 | 1021.7 |
| 20260902185524 | 63 | 258 | 2.6 | 7.8 | 0.00 | 0.00 | 0.00 | 30 | 1021.7 |
| 20260902185028 | 63 | 226 | 0.0 | 7.0 | 0.00 | 0.00 | 0.00 | 30 | 1021.7 |
| 20260902184522 | 63 | 252 | 1.7 | 7.0 | 0.00 | 0.00 | 0.00 | 30 | 1021.8 |
| 20260902184022 | 62 | 296 | 0.0 | 7.8 | 0.00 | 0.00 | 0.00 | 30 | 1021.7 |
| 20260902183522 | 62 | 254 | 0.0 | 7.8 | 0.00 | 0.00 | 0.00 | 30 | 1021.8 |
| 20260902183022 | 63 | 344 | 0.0 | 7.0 | 0.00 | 0.00 | 0.00 | 29 | 1021.8 |
| 20260902182520 | 63 | 220 | 2.6 | 11.3 | 0.00 | 0.00 | 0.00 | 28 | 1021.7 |
| 20260902182021 | 63 | 188 | 6.1 | 12.2 | 0.00 | 0.00 | 0.00 | 28 | 1021.8 |
| 20260902181521 | 62 | 115 | 2.6 | 11.3 | 0.00 | 0.00 | 0.00 | 29 | 1021.8 |
| 20260902181020 | 61 | 177 | 3.5 | 7.8 | 0.00 | 0.00 | 0.00 | 30 | 1021.8 |
| 20260902180523 | 60 | 208 | 0.9 | 12.2 | 0.00 | 0.00 | 0.00 | 32 | 1021.7 |
| 20260902180020 | 61 | 246 | 3.5 | 12.2 | 0.00 | 0.00 | 0.00 | 31 | 1021.6 |
| 20260902175519 | 60 | 97 | 0.0 | 3.5 | 0.00 | 0.00 | 0.00 | 32 | 1021.7 |
| 20260902175018 | 61 | 5 | 0.0 | 0.9 | 0.00 | 0.00 | 0.00 | 32 | 1021.7 |
| 20260902174524 | 61 | 360 | 0.0 | 0.9 | 0.00 | 0.00 | 0.00 | 32 | 1021.7 |
| 20260902174017 | 60 | 355 | 0.0 | 0.9 | 0.00 | 0.00 | 0.00 | 32 | 1021.6 |
| 20260902173517 | 60 | 29 | 0.0 | 0.0 | 0.00 | 0.00 | 0.00 | 32 | 1021.6 |
| 20260902173016 | 60 | 28 | 0.0 | 0.0 | 0.00 | 0.00 | 0.00 | 33 | 1021.6 |
| 20260902172522 | 60 | 328 | 0.0 | 0.0 | 0.00 | 0.00 | 0.00 | 32 | 1021.6 |
| 20260902172017 | 60 | 331 | 0.0 | 0.0 | 0.00 | 0.00 | 0.00 | 33 | 1021.6 |
| 20260902171517 | 59 | 327 | 0.0 | 0.0 | 0.00 | 0.00 | 0.00 | 32 | 1021.7 |
| 20260902171016 | 59 | 327 | 0.0 | 0.0 | 0.00 | 0.00 | 0.00 | 33 | 1021.6 |
| 20260902170517 | 59 | 319 | 0.0 | 0.0 | 0.00 | 0.00 | 0.00 | 34 | 1021.6 |
| 20260902170015 | 59 | 323 | 0.0 | 0.0 | 0.00 | 0.00 | 0.00 | 34 | 1021.5 |
| 20260902165513 | 58 | 301 | 0.0 | 0.0 | 0.00 | 0.00 | 0.00 | 34 | 1021.4 |
| 20260902165012 | 58 | 306 | 0.0 | 0.9 | 0.00 | 0.00 | 0.00 | 34 | 1021.3 |
| 20260902164521 | 58 | 285 | 0.0 | 0.9 | 0.00 | 0.00 | 0.00 | 34 | 1021.3 |
| 20260902164010 | 58 | 311 | 0.0 | 0.0 | 0.00 | 0.00 | 0.00 | 34 | 1021.3 |
| 20260902163512 | 58 | 293 | 0.0 | 3.5 | 0.00 | 0.00 | 0.00 | 34 | 1021.2 |
| 20260902163010 | 58 | 327 | 0.0 | 3.5 | 0.00 | 0.00 | 0.00 | 34 | 1021.2 |
| 20260902162509 | 58 | 323 | 0.0 | 1.7 | 0.00 | 0.00 | 0.00 | 34 | 1021.1 |
| 20260902162009 | 58 | 338 | 0.0 | 1.7 | 0.00 | 0.00 | 0.00 | 34 | 1021.0 |
| 20260902161521 | 58 | 347 | 0.0 | 1.7 | 0.00 | 0.00 | 0.00 | 34 | 1021.0 |
| 20260902161009 | 58 | 346 | 0.0 | 0.0 | 0.00 | 0.00 | 0.00 | 34 | 1021.0 |
| 20260902160511 | 58 | 330 | 0.0 | 0.0 | 0.00 | 0.00 | 0.00 | 35 | 1021.2 |
| 20260902160009 | 58 | 5 | 0.0 | 1.7 | 0.00 | 0.00 | 0.00 | 35 | 1021.2 |
| 20260902155508 | 58 | 350 | 0.0 | 1.7 | 0.00 | 0.00 | 0.00 | 36 | 1021.2 |
| 20260902155009 | 57 | 5 | 0.0 | 3.5 | 0.00 | 0.00 | 0.00 | 35 | 1021.2 |
| 20260902154514 | 57 | 348 | 0.9 | 6.1 | 0.00 | 0.00 | 0.00 | 35 | 1021.1 |
| 20260902154006 | 57 | 342 | 0.0 | 7.8 | 0.00 | 0.00 | 0.00 | 36 | 1021.2 |
| 20260902153506 | 57 | 306 | 0.0 | 4.3 | 0.00 | 0.00 | 0.00 | 36 | 1021.2 |
| 20260902153006 | 57 | 304 | 0.0 | 4.3 | 0.00 | 0.00 | 0.00 | 36 | 1021.2 |
| 20260902152505 | 57 | 292 | 0.0 | 6.1 | 0.00 | 0.00 | 0.00 | 36 | 1021.2 |
| 20260902152006 | 56 | 271 | 1.7 | 6.1 | 0.00 | 0.00 | 0.00 | 36 | 1021.2 |
| 20260902151504 | 56 | 297 | 0.0 | 7.8 | 0.00 | 0.00 | 0.00 | 36 | 1021.1 |
| 20260902151004 | 56 | 286 | 1.7 | 7.8 | 0.00 | 0.00 | 0.00 | 36 | 1021.1 |
| 20260902150505 | 56 | 319 | 0.0 | 2.6 | 0.00 | 0.00 | 0.00 | 37 | 1021.0 |
| 20260902150002 | 56 | 9 | 0.0 | 4.3 | 0.00 | 0.00 | 0.00 | 37 | 1020.9 |
| 20260902145502 | 56 | 5 | 0.0 | 4.3 | 0.00 | 0.00 | 0.00 | 36 | 1020.9 |
| 20260902145001 | 56 | 23 | 0.0 | 6.1 | 0.00 | 0.00 | 0.00 | 36 | 1020.8 |
| 20260902144602 | 56 | 5 | 0.9 | 8.7 | 0.00 | 0.00 | 0.00 | 36 | 1020.7 |
| 20260902144059 | 56 | 340 | 3.5 | 9.6 | 0.00 | 0.00 | 0.00 | 36 | 1020.5 |
| 20260902143601 | 56 | 277 | 3.5 | 9.6 | 0.00 | 0.00 | 0.00 | 36 | 1020.4 |
| 20260902143059 | 56 | 288 | 0.9 | 8.7 | 0.00 | 0.00 | 0.00 | 36 | 1020.4 |
| 20260902142558 | 56 | 279 | 0.9 | 9.6 | 0.00 | 0.00 | 0.00 | 36 | 1020.5 |
| 20260902142058 | 56 | 300 | 4.3 | 10.4 | 0.00 | 0.00 | 0.00 | 35 | 1020.4 |
| 20260902141557 | 56 | 278 | 5.2 | 10.4 | 0.00 | 0.00 | 0.00 | 35 | 1020.2 |
| 20260902141059 | 55 | 292 | 3.5 | 7.8 | 0.00 | 0.00 | 0.00 | 36 | 1020.2 |
| 20260902140600 | 55 | 251 | 1.7 | 7.0 | 0.00 | 0.00 | 0.00 | 36 | 1020.2 |
| 20260902140106 | 54 | 244 | 0.9 | 3.5 | 0.00 | 0.00 | 0.00 | 36 | 1020.2 |
| 20260902135556 | 53 | 350 | 0.0 | 0.0 | 0.00 | 0.00 | 0.00 | 37 | 1020.1 |
| 20260902135055 | 53 | 45 | 0.0 | 1.7 | 0.00 | 0.00 | 0.00 | 37 | 1020.3 |
| 20260902134555 | 54 | 53 | 0.0 | 4.3 | 0.00 | 0.00 | 0.00 | 36 | 1020.1 |
| 20260902134053 | 54 | 39 | 0.9 | 3.5 | 0.00 | 0.00 | 0.00 | 36 | 1020.0 |
| 20260902133553 | 54 | 105 | 0.0 | 0.9 | 0.00 | 0.00 | 0.00 | 34 | 1019.8 |
| 20260902133102 | 54 | 227 | 0.0 | 0.0 | 0.00 | 0.00 | 0.00 | 34 | 1019.7 |
| 20260902132552 | 55 | 297 | 0.0 | 7.0 | 0.00 | 0.00 | 0.00 | 34 | 1019.7 |
| 20260902132052 | 55 | 282 | 0.9 | 7.0 | 0.00 | 0.00 | 0.00 | 35 | 1019.7 |
| 20260902131559 | 54 | 275 | 0.0 | 7.0 | 0.00 | 0.00 | 0.00 | 35 | 1019.6 |
| 20260902131055 | 54 | 265 | 2.6 | 7.0 | 0.00 | 0.00 | 0.00 | 35 | 1019.5 |
| 20260902130552 | 53 | 288 | 2.6 | 7.0 | 0.00 | 0.00 | 0.00 | 36 | 1019.4 |
| 20260902130052 | 53 | 242 | 0.9 | 5.2 | 0.00 | 0.00 | 0.00 | 36 | 1019.5 |
| 20260902125549 | 53 | 250 | 0.0 | 0.9 | 0.00 | 0.00 | 0.00 | 36 | 1019.5 |
| 20260902125049 | 54 | 74 | 0.0 | 1.7 | 0.00 | 0.00 | 0.00 | 35 | 1019.7 |
| 20260902124551 | 55 | 74 | 0.0 | 1.7 | 0.00 | 0.00 | 0.00 | 34 | 1019.6 |
| 20260902124047 | 55 | 39 | 0.0 | 6.1 | 0.00 | 0.00 | 0.00 | 32 | 1019.5 |
| 20260902123547 | 56 | 279 | 0.0 | 8.7 | 0.00 | 0.00 | 0.00 | 32 | 1019.2 |
| 20260902123048 | 56 | 305 | 4.3 | 9.6 | 0.00 | 0.00 | 0.00 | 32 | 1019.1 |
| 20260902122548 | 56 | 271 | 6.1 | 10.4 | 0.00 | 0.00 | 0.00 | 32 | 1019.1 |
| 20260902122047 | 56 | 272 | 7.0 | 10.4 | 0.00 | 0.00 | 0.00 | 32 | 1019.1 |
| 20260902121558 | 56 | 264 | 7.0 | 10.4 | 0.00 | 0.00 | 0.00 | 32 | 1019.2 |
| 20260902121047 | 55 | 274 | 5.2 | 9.6 | 0.00 | 0.00 | 0.00 | 31 | 1019.2 |
| 20260902120549 | 55 | 273 | 5.2 | 11.3 | 0.00 | 0.00 | 0.00 | 32 | 1019.2 |
| 20260902120047 | 54 | 269 | 7.0 | 11.3 | 0.00 | 0.00 | 0.00 | 31 | 1019.2 |
| 20260902115547 | 54 | 277 | 7.0 | 9.6 | 0.00 | 0.00 | 0.00 | 31 | 1019.2 |
| 20260902115044 | 54 | 265 | 5.2 | 7.8 | 0.00 | 0.00 | 0.00 | 31 | 1019.3 |
| 20260902114550 | 54 | 268 | 0.0 | 4.3 | 0.00 | 0.00 | 0.00 | 32 | 1019.5 |
| 20260902114042 | 54 | 25 | 0.0 | 4.3 | 0.00 | 0.00 | 0.00 | 31 | 1019.6 |
| 20260902113541 | 55 | 19 | 1.7 | 3.5 | 0.00 | 0.00 | 0.00 | 30 | 1019.4 |
| 20260902113052 | 56 | 42 | 0.9 | 3.5 | 0.00 | 0.00 | 0.00 | 29 | 1019.3 |
| 20260902112539 | 56 | 52 | 0.0 | 13.9 | 0.00 | 0.00 | 0.00 | 27 | 1019.1 |
| 20260902112038 | 57 | 288 | 7.8 | 13.9 | 0.00 | 0.00 | 0.00 | 28 | 1018.8 |
| 20260902111538 | 57 | 276 | 9.6 | 13.9 | 0.00 | 0.00 | 0.00 | 27 | 1018.5 |
| 20260902111036 | 57 | 271 | 7.8 | 12.2 | 0.00 | 0.00 | 0.00 | 27 | 1018.6 |
| 20260902110535 | 56 | 251 | 6.1 | 10.4 | 0.00 | 0.00 | 0.00 | 27 | 1018.6 |
| 20260902110034 | 54 | 261 | 4.3 | 7.8 | 0.00 | 0.00 | 0.00 | 27 | 1018.8 |
| 20260902105534 | 54 | 234 | 1.7 | 3.5 | 0.00 | 0.00 | 0.00 | 27 | 1018.9 |
| 20260902105032 | 56 | 275 | 0.0 | 0.9 | 0.00 | 0.00 | 0.00 | 26 | 1018.8 |
| 20260902104544 | 57 | 285 | 0.0 | 0.9 | 0.00 | 0.00 | 0.00 | 26 | 1018.9 |
| 20260902104031 | 58 | 285 | 0.0 | 0.9 | 0.00 | 0.00 | 0.00 | 25 | 1018.8 |
| 20260902103530 | 58 | 285 | 0.0 | 4.3 | 0.00 | 0.00 | 0.00 | 25 | 1018.8 |
| 20260902103031 | 57 | 9 | 0.0 | 7.0 | 0.00 | 0.00 | 0.00 | 26 | 1018.7 |
| 20260902102531 | 57 | 271 | 0.9 | 7.0 | 0.00 | 0.00 | 0.00 | 26 | 1018.6 |
| 20260902102030 | 57 | 242 | 1.7 | 6.1 | 0.00 | 0.00 | 0.00 | 26 | 1018.4 |
| 20260902101536 | 57 | 227 | 0.9 | 5.2 | 0.00 | 0.00 | 0.00 | 26 | 1018.3 |
| 20260902101029 | 57 | 178 | 0.9 | 5.2 | 0.00 | 0.00 | 0.00 | 27 | 1018.1 |
| 20260902100531 | 57 | 205 | 0.0 | 7.0 | 0.00 | 0.00 | 0.00 | 27 | 1018.2 |
| 20260902100029 | 56 | 253 | 0.9 | 7.0 | 0.00 | 0.00 | 0.00 | 27 | 1018.4 |
| 20260902095528 | 56 | 218 | 0.0 | 0.9 | 0.00 | 0.00 | 0.00 | 28 | 1018.6 |
| 20260902095026 | 57 | 298 | 0.0 | 0.9 | 0.00 | 0.00 | 0.00 | 28 | 1018.7 |
| 20260902094524 | 58 | 329 | 0.0 | 1.7 | 0.00 | 0.00 | 0.00 | 28 | 1018.8 |
| 20260902094023 | 59 | 345 | 0.0 | 7.8 | 0.00 | 0.00 | 0.00 | 27 | 1018.8 |
| 20260902093522 | 59 | 348 | 0.0 | 8.7 | 0.00 | 0.00 | 0.00 | 26 | 1018.8 |
| 20260902093025 | 59 | 277 | 1.7 | 11.3 | 0.00 | 0.00 | 0.00 | 26 | 1018.8 |
| 20260902092523 | 59 | 263 | 3.5 | 10.4 | 0.00 | 0.00 | 0.00 | 27 | 1018.6 |
| 20260902092020 | 59 | 238 | 2.6 | 11.3 | 0.00 | 0.00 | 0.00 | 26 | 1018.5 |
| 20260902091519 | 59 | 233 | 5.2 | 12.2 | 0.00 | 0.00 | 0.00 | 27 | 1018.4 |
| 20260902091018 | 59 | 236 | 4.3 | 13.0 | 0.00 | 0.00 | 0.00 | 27 | 1018.3 |
| 20260902090519 | 59 | 267 | 6.1 | 13.0 | 0.00 | 0.00 | 0.00 | 28 | 1018.2 |
| 20260902090017 | 60 | 225 | 6.1 | 13.0 | 0.00 | 0.00 | 0.00 | 28 | 1018.2 |
| 20260902085515 | 60 | 219 | 7.8 | 13.0 | 0.00 | 0.00 | 0.00 | 28 | 1018.1 |
| 20260902085014 | 60 | 200 | 7.8 | 18.2 | 0.00 | 0.00 | 0.00 | 28 | 1018.1 |
| 20260902084514 | 60 | 211 | 10.4 | 19.1 | 0.00 | 0.00 | 0.00 | 28 | 1017.9 |
| 20260902084013 | 60 | 209 | 11.3 | 18.2 | 0.00 | 0.00 | 0.00 | 28 | 1017.8 |
| 20260902083512 | 61 | 232 | 8.7 | 19.1 | 0.00 | 0.00 | 0.00 | 28 | 1017.9 |
| 20260902083011 | 61 | 199 | 9.6 | 19.1 | 0.00 | 0.00 | 0.00 | 27 | 1017.7 |
| 20260902082511 | 61 | 172 | 10.4 | 17.4 | 0.00 | 0.00 | 0.00 | 27 | 1017.6 |
| 20260902082009 | 61 | 192 | 10.4 | 18.2 | 0.00 | 0.00 | 0.00 | 27 | 1017.6 |
| 20260902081512 | 62 | 260 | 10.4 | 20.0 | 0.00 | 0.00 | 0.00 | 26 | 1017.6 |
| 20260902081007 | 62 | 228 | 8.7 | 18.2 | 0.00 | 0.00 | 0.00 | 24 | 1017.5 |
| 20260902080507 | 62 | 235 | 5.2 | 13.9 | 0.00 | 0.00 | 0.00 | 23 | 1017.5 |
| 20260902080005 | 62 | 246 | 8.7 | 17.4 | 0.00 | 0.00 | 0.00 | 22 | 1017.3 |
| 20260902075504 | 61 | 235 | 5.2 | 14.8 | 0.00 | 0.00 | 0.00 | 25 | 1017.2 |
| 20260902075002 | 61 | 190 | 5.2 | 14.8 | 0.00 | 0.00 | 0.00 | 27 | 1017.2 |
| 20260902074502 | 61 | 246 | 4.3 | 13.9 | 0.00 | 0.00 | 0.00 | 28 | 1017.2 |
| 20260902074002 | 61 | 250 | 7.0 | 13.0 | 0.00 | 0.00 | 0.00 | 28 | 1017.3 |
| 20260902073600 | 61 | 250 | 5.2 | 13.0 | 0.00 | 0.00 | 0.00 | 27 | 1017.3 |
| 20260902073100 | 61 | 227 | 8.7 | 13.9 | 0.00 | 0.00 | 0.00 | 27 | 1017.3 |
| 20260902072600 | 61 | 276 | 4.3 | 19.1 | 0.00 | 0.00 | 0.00 | 27 | 1017.4 |
| 20260902072058 | 61 | 219 | 8.7 | 19.1 | 0.00 | 0.00 | 0.00 | 26 | 1017.4 |
| 20260902071557 | 62 | 295 | 5.2 | 18.2 | 0.00 | 0.00 | 0.00 | 26 | 1017.2 |
| 20260902071058 | 62 | 269 | 6.1 | 18.2 | 0.00 | 0.00 | 0.00 | 26 | 1017.0 |
| 20260902070554 | 62 | 239 | 5.2 | 9.6 | 0.00 | 0.00 | 0.00 | 25 | 1017.0 |
| 20260902070052 | 62 | 247 | 4.3 | 13.0 | 0.00 | 0.00 | 0.00 | 25 | 1016.9 |
| 20260902065551 | 62 | 247 | 4.3 | 13.0 | 0.00 | 0.00 | 0.00 | 24 | 1016.9 |
| 20260902065051 | 62 | 240 | 5.2 | 13.9 | 0.00 | 0.00 | 0.00 | 24 | 1016.7 |
| 20260902064552 | 63 | 320 | 6.1 | 14.8 | 0.00 | 0.00 | 0.00 | 24 | 1016.8 |
| 20260902064050 | 63 | 296 | 5.2 | 16.5 | 0.00 | 0.00 | 0.00 | 24 | 1016.8 |
| 20260902063549 | 63 | 238 | 8.7 | 16.5 | 0.00 | 0.00 | 0.00 | 24 | 1016.6 |
| 20260902063048 | 63 | 262 | 6.1 | 19.1 | 0.00 | 0.00 | 0.00 | 23 | 1016.5 |
| 20260902062547 | 63 | 225 | 9.6 | 17.4 | 0.00 | 0.00 | 0.00 | 23 | 1016.2 |
| 20260902062046 | 63 | 238 | 9.6 | 19.1 | 0.00 | 0.00 | 0.00 | 24 | 1016.1 |
| 20260902061549 | 63 | 233 | 13.0 | 20.9 | 0.00 | 0.00 | 0.00 | 24 | 1015.9 |
| 20260902061044 | 64 | 235 | 12.2 | 20.9 | 0.00 | 0.00 | 0.00 | 24 | 1015.7 |
| 20260902060546 | 64 | 192 | 12.2 | 23.5 | 0.00 | 0.00 | 0.00 | 24 | 1015.4 |
| 20260902060042 | 64 | 223 | 13.0 | 21.7 | 0.00 | 0.00 | 0.00 | 23 | 1015.2 |
| 20260902055541 | 64 | 191 | 14.8 | 27.8 | 0.00 | 0.00 | 0.00 | 23 | 1015.0 |
| 20260902055040 | 64 | 247 | 14.8 | 27.8 | 0.00 | 0.00 | 0.00 | 23 | 1014.9 |
| 20260902054542 | 64 | 188 | 14.8 | 26.1 | 0.00 | 0.00 | 0.00 | 23 | 1014.9 |
| 20260902054040 | 65 | 192 | 14.8 | 23.5 | 0.00 | 0.00 | 0.00 | 22 | 1014.9 |
| 20260902053540 | 64 | 209 | 13.9 | 24.3 | 0.00 | 0.00 | 0.00 | 22 | 1014.8 |
| 20260902053040 | 64 | 187 | 12.2 | 20.9 | 0.00 | 0.00 | 0.00 | 23 | 1014.7 |
| 20260902052540 | 65 | 221 | 10.4 | 21.7 | 0.00 | 0.00 | 0.00 | 23 | 1014.7 |
| 20260902052039 | 65 | 233 | 13.9 | 22.6 | 0.00 | 0.00 | 0.00 | 22 | 1014.6 |
| 20260902051538 | 65 | 200 | 15.6 | 25.2 | 0.00 | 0.00 | 0.00 | 22 | 1014.7 |
| 20260902051038 | 65 | 206 | 15.6 | 25.2 | 0.00 | 0.00 | 0.00 | 22 | 1014.6 |
| 20260902050540 | 65 | 226 | 13.9 | 27.8 | 0.00 | 0.00 | 0.00 | 21 | 1014.5 |
| 20260902050038 | 65 | 206 | 14.8 | 27.8 | 0.00 | 0.00 | 0.00 | 21 | 1014.4 |
| 20260902045536 | 65 | 207 | 14.8 | 26.1 | 0.00 | 0.00 | 0.00 | 21 | 1014.3 |
| 20260902045041 | 66 | 209 | 16.5 | 26.1 | 0.00 | 0.00 | 0.00 | 21 | 1014.1 |
| 20260902044541 | 66 | 195 | 17.4 | 24.3 | 0.00 | 0.00 | 0.00 | 20 | 1014.1 |
| 20260902044039 | 66 | 196 | 14.8 | 24.3 | 0.00 | 0.00 | 0.00 | 20 | 1014.0 |
| 20260902043538 | 66 | 238 | 14.8 | 26.1 | 0.00 | 0.00 | 0.00 | 20 | 1014.0 |
| 20260902043043 | 66 | 192 | 15.6 | 25.2 | 0.00 | 0.00 | 0.00 | 20 | 1013.8 |
| 20260902042538 | 66 | 216 | 15.6 | 26.1 | 0.00 | 0.00 | 0.00 | 20 | 1014.2 |
| 20260902042035 | 66 | 278 | 17.4 | 29.5 | 0.00 | 0.00 | 0.00 | 19 | 1013.7 |
| 20260902041534 | 67 | 248 | 15.6 | 27.8 | 0.00 | 0.00 | 0.00 | 19 | 1013.7 |
| 20260902041034 | 67 | 228 | 15.6 | 27.8 | 0.00 | 0.00 | 0.00 | 19 | 1014.0 |
| 20260902040532 | 67 | 197 | 13.9 | 25.2 | 0.00 | 0.00 | 0.00 | 19 | 1013.9 |
| 20260902040032 | 67 | 192 | 13.0 | 25.2 | 0.00 | 0.00 | 0.00 | 19 | 1013.8 |
| 20260902035529 | 67 | 221 | 15.6 | 23.5 | 0.00 | 0.00 | 0.00 | 19 | 1013.7 |
| 20260902035029 | 67 | 207 | 11.3 | 25.2 | 0.00 | 0.00 | 0.00 | 18 | 1013.7 |
| 20260902034529 | 67 | 227 | 12.2 | 24.3 | 0.00 | 0.00 | 0.00 | 18 | 1013.7 |
| 20260902034028 | 67 | 230 | 13.0 | 24.3 | 0.00 | 0.00 | 0.00 | 19 | 1013.9 |
| 20260902033526 | 68 | 263 | 9.6 | 22.6 | 0.00 | 0.00 | 0.00 | 19 | 1014.0 |
| 20260902033027 | 68 | 211 | 12.2 | 22.6 | 0.00 | 0.00 | 0.00 | 18 | 1013.9 |
| 20260902032525 | 68 | 225 | 6.1 | 16.5 | 0.00 | 0.00 | 0.00 | 18 | 1013.9 |
| 20260902032026 | 68 | 254 | 7.0 | 17.4 | 0.00 | 0.00 | 0.00 | 17 | 1013.9 |
| 20260902031535 | 68 | 243 | 9.6 | 21.7 | 0.00 | 0.00 | 0.00 | 17 | 1013.9 |
| 20260902031029 | 69 | 246 | 8.7 | 21.7 | 0.00 | 0.00 | 0.00 | 17 | 1013.6 |
| 20260902030524 | 69 | 224 | 10.4 | 25.2 | 0.00 | 0.00 | 0.00 | 18 | 1013.6 |
| 20260902030028 | 69 | 215 | 12.2 | 23.5 | 0.00 | 0.00 | 0.00 | 18 | 1013.4 |
| 20260902025523 | 69 | 198 | 7.8 | 21.7 | 0.00 | 0.00 | 0.00 | 18 | 1013.3 |
| 20260902025022 | 69 | 229 | 11.3 | 20.9 | 0.00 | 0.00 | 0.00 | 17 | 1013.4 |
| 20260902024522 | 69 | 243 | 10.4 | 24.3 | 0.00 | 0.00 | 0.00 | 18 | 1013.2 |
| 20260902024021 | 69 | 231 | 13.0 | 24.3 | 0.00 | 0.00 | 0.00 | 18 | 1013.4 |
| 20260902023522 | 70 | 200 | 7.8 | 20.0 | 0.00 | 0.00 | 0.00 | 17 | 1013.3 |
| 20260902023030 | 70 | 211 | 12.2 | 20.0 | 0.00 | 0.00 | 0.00 | 17 | 1013.3 |
| 20260902022522 | 70 | 248 | 8.7 | 19.1 | 0.00 | 0.00 | 0.00 | 17 | 1013.1 |
| 20260902022029 | 70 | 244 | 12.2 | 20.0 | 0.00 | 0.00 | 0.00 | 17 | 1013.1 |
| 20260902021520 | 71 | 178 | 11.3 | 21.7 | 0.00 | 0.00 | 0.00 | 16 | 1012.9 |
| 20260902021020 | 71 | 198 | 13.0 | 21.7 | 0.00 | 0.00 | 0.00 | 17 | 1012.9 |
| 20260902020520 | 71 | 191 | 13.0 | 20.0 | 0.00 | 0.00 | 0.00 | 16 | 1012.9 |
| 20260902020025 | 72 | 259 | 12.2 | 25.2 | 0.00 | 0.00 | 0.00 | 16 | 1012.9 |
| 20260902015519 | 72 | 173 | 12.2 | 22.6 | 0.00 | 0.00 | 0.00 | 16 | 1012.8 |
| 20260902015019 | 72 | 218 | 14.8 | 22.6 | 0.00 | 0.00 | 0.00 | 15 | 1012.4 |
| 20260902014522 | 72 | 252 | 13.0 | 26.1 | 0.00 | 0.00 | 0.00 | 16 | 1012.8 |
| 20260902014019 | 72 | 165 | 13.0 | 26.1 | 0.00 | 0.00 | 0.00 | 15 | 1012.6 |
| 20260902013522 | 73 | 232 | 13.9 | 26.1 | 0.00 | 0.00 | 0.00 | 15 | 1012.5 |
| 20260902013019 | 73 | 232 | 13.9 | 26.1 | 0.00 | 0.00 | 0.00 | 15 | 1012.6 |
| 20260902012519 | 74 | 175 | 13.9 | 26.1 | 0.00 | 0.00 | 0.00 | 15 | 1012.5 |
| 20260902012118 | 74 | 236 | 13.0 | 26.1 | 0.00 | 0.00 | 0.00 | 15 | 1012.5 |
| 20260902011518 | 74 | 246 | 13.9 | 24.3 | 0.00 | 0.00 | 0.00 | 15 | 1012.7 |
| 20260902011018 | 74 | 170 | 12.2 | 24.3 | 0.00 | 0.00 | 0.00 | 15 | 1012.8 |
| 20260902010518 | 74 | 246 | 13.0 | 21.7 | 0.00 | 0.00 | 0.00 | 15 | 1012.8 |
| 20260902010024 | 75 | 242 | 10.4 | 20.0 | 0.00 | 0.00 | 0.00 | 15 | 1012.8 |
| 20260902005519 | 75 | 198 | 10.4 | 18.2 | 0.00 | 0.00 | 0.00 | 15 | 1012.7 |
| 20260902005016 | 76 | 246 | 7.8 | 20.0 | 0.00 | 0.00 | 0.00 | 15 | 1012.6 |
| 20260902004520 | 77 | 180 | 13.0 | 21.7 | 0.00 | 0.00 | 0.00 | 15 | 1012.6 |
| 20260902004018 | 77 | 198 | 10.4 | 24.3 | 0.00 | 0.00 | 0.00 | 14 | 1012.6 |
| 20260902003515 | 77 | 251 | 10.4 | 23.5 | 0.00 | 0.00 | 0.00 | 14 | 1012.7 |
| 20260902003016 | 77 | 225 | 11.3 | 23.5 | 0.00 | 0.00 | 0.00 | 14 | 1012.8 |
| 20260902002516 | 77 | 189 | 13.0 | 23.5 | 0.00 | 0.00 | 0.00 | 15 | 1012.6 |
| 20260902002015 | 77 | 213 | 11.3 | 19.1 | 0.00 | 0.00 | 0.00 | 15 | 1012.7 |
| 20260902001516 | 77 | 224 | 10.4 | 21.7 | 0.00 | 0.00 | 0.00 | 15 | 1012.7 |
| 20260902001015 | 77 | 254 | 10.4 | 19.1 | 0.00 | 0.00 | 0.00 | 14 | 1012.7 |
| 20260902000514 | 77 | 240 | 13.0 | 18.2 | 0.00 | 0.00 | 0.00 | 14 | 1012.7 |
| 20260902000014 | 78 | 237 | 9.6 | 20.9 | 0.00 | 0.00 | 0.00 | 14 | 1012.6 |
| 20260901235514 | 78 | 198 | 11.3 | 24.3 | 0.00 | 0.00 | 0.00 | 13 | 1012.7 |
| 20260901235013 | 78 | 188 | 12.2 | 24.3 | 0.00 | 0.00 | 0.00 | 13 | 1012.5 |
| 20260901234514 | 78 | 208 | 10.4 | 18.2 | 0.00 | 0.00 | 0.00 | 13 | 1012.6 |
| 20260901234013 | 79 | 198 | 8.7 | 17.4 | 0.00 | 0.00 | 0.00 | 12 | 1012.7 |
| 20260901233519 | 79 | 198 | 8.7 | 15.6 | 0.00 | 0.00 | 0.00 | 12 | 1012.7 |
| 20260901233013 | 79 | 190 | 8.7 | 15.6 | 0.00 | 0.00 | 0.00 | 12 | 1012.8 |
| 20260901232513 | 79 | 222 | 9.6 | 15.6 | 0.00 | 0.00 | 0.00 | 12 | 1012.8 |
| 20260901232013 | 79 | 244 | 9.6 | 15.6 | 0.00 | 0.00 | 0.00 | 12 | 1012.7 |
| 20260901231513 | 79 | 202 | 6.1 | 15.6 | 0.00 | 0.00 | 0.00 | 12 | 1012.7 |
| 20260901231012 | 79 | 229 | 8.7 | 20.0 | 0.00 | 0.00 | 0.00 | 12 | 1012.7 |
| 20260901230512 | 79 | 288 | 9.6 | 20.0 | 0.00 | 0.00 | 0.00 | 12 | 1012.6 |